Flag for U.S.A. Weather past 2 weeks in San Bernardino, California, U.S.A.

Now
88 °F

Sunny.


Feels Like: 84 °F
Forecast: 60 / 90 °F
Wind: 7 mph from Southwest

Location: Riverside Municipal Airport

Current Time: Mar 27, 2015 at 12:13:07 PM

Latest Report: Mar 27, 2015 at 11:53 AM


Visibility: 10 mi

Pressure: 30.04 "Hg

Humidity: 10%

Dew point: 26 °F

Location of San BernardinoLocation

Historic Weather in San Bernardino — Graph

°F

San Bernardino temperature yesterday

Maximum temperature yesterday: 93 °F (at 4:53 PM)
Minimum temperature yesterday: 56 °F (at 6:53 AM)
Average temperature yesterday: 75 °F

Past Weeks' High & Low Weather Summary

 TemperatureHumidityPressure
High93 °F (Mar 26, 4:53 PM)96% (Mar 20, 7:53 AM)30.18 "Hg (Mar 20, 7:53 AM)
Low51 °F (Mar 24, 6:53 AM)7% (Mar 16, 1:53 PM)29.83 "Hg (Mar 16, 3:53 PM)
Average70 °F45%30.00 "Hg
* Reported Mar 12 10:53 AM — Mar 27 10:53 AM, San Bernardino, Weather by CustomWeather, © 2015

Note: Actual official high and low records may vary slightly from our data, if they occured in-between our weather recording intervals... More about our weather records

Advertising

San Bernardino weather history for previous 24 hours

 ConditionsComfort  
Time TempWeatherWind HumidityBarometerVisibility
10:53 AM
Fri, Mar 27
83 °FSunny.No wind14%30.05 "Hg10 mi
9:53 AM78 °FSunny.No wind20%30.06 "Hg10 mi
8:53 AM70 °FSunny.3 mph30%30.06 "Hg10 mi
7:53 AM64 °FSunny.3 mph35%30.05 "Hg10 mi
6:53 AM60 °FClear.5 mph42%30.03 "Hg10 mi
5:53 AM60 °FClear.3 mph44%30.02 "Hg10 mi
4:53 AM64 °FClear.6 mph34%30.01 "Hg10 mi
3:53 AM63 °FClear.5 mph38%30.01 "Hg10 mi
2:53 AM63 °FClear.6 mph41%30.01 "Hg10 mi
1:53 AM65 °FClear.5 mph39%30.02 "Hg10 mi
12:53 AM65 °FClear.3 mph37%30.02 "Hg10 mi
11:53 PM
Thu, Mar 26
70 °FClear.5 mph30%30.02 "Hg10 mi
10:53 PM73 °FClear.3 mph26%30.02 "Hg10 mi
9:53 PM75 °FClear.3 mph24%30.02 "Hg10 mi
8:53 PM77 °FClear.7 mph20%30.01 "Hg10 mi
7:53 PM81 °FSunny.6 mph18%29.99 "Hg10 mi
6:53 PM85 °FSunny.6 mph15%29.96 "Hg10 mi
5:53 PM92 °FSunny.5 mph8%29.95 "Hg10 mi
4:53 PM93 °FSunny.N/A7%29.95 "Hg10 mi
3:53 PM92 °FSunny.3 mph8%29.96 "Hg10 mi
2:53 PM91 °FSunny.5 mph9%29.98 "Hg10 mi
1:53 PM90 °FSunny.7 mph9%30.00 "Hg10 mi
12:53 PM88 °FSunny.No wind10%30.03 "Hg10 mi
Weather by CustomWeather, © 2015

See weather overviewHow to use our weather pages